Погода Крестцы

Поиск расширенной информации на нашем сайте:

Полезная информация:

Новости сайта



02.01.2020
Опубликован Долгосрочный прогноз погоды по городам России и ближнего зарубежья на январь 2020 года.
Карты: Прогноз на январь и февраль 2020 года, Сравнение прогнозируемой аномалии приземной температуры воздуха на январь 2020 года по разным моделям.




Погода Крестцы - сегодня

Время (UTC), дата Ветер
(°,м/с) 
Видим.   Явления Облачность Т
(°С)
Тd
(°С)
f(%) Тe
(°С)
Pmin
(гПа)
dP
(гПа)
Po
(мм)
O2
(г/м3)
Тmin Tmax R s Состояние
почвы
03 29.11.20 070 (В) н/о    н/о 
-1.2 -2.5 91 -3  1030.2  767  311  -1.2         
06 29.11.20 060 (СВ) 20000 м    10/10 330 м 
[St]
-1.3 -2.4 92 -3  1029.8  -0.4  766  311  -1.3         
09 29.11.20 060 (СВ) н/о    н/о 
-0.8 -2.5 88 -4  1029.1  -0.7  766  310           
12 29.11.20 070 (В) н/о    н/о 
-0.4 -2.1 88 -2  1027.6  -1.4  765  309           
15 29.11.20 080 (В) 5-10  н/о    н/о 
+0.2 -1.1 91 -3  1027.1  -0.5  764  308           
18 29.11.20 080 (В) 10 км  слаб. снег  10/10 300 м 
[Frnb|Ns]
+0.3 -0.8 92 -1  1026.1  -1  764  307    +0.4  0.3     
21 29.11.20 090 (В) н/о    н/о 
+1.2 -0.2 90 1025.2  -0.9  763  306           
00 30.11.20 110 (В) н/о    н/о 
+1.2 +0.5 95 +1  1024.7  -0.5  762  306           
03 30.11.20 120 (ЮВ) н/о    н/о 
+1.7 +0.8 94 +1  1024.4  -0.2  762  305  +0.2    0.2     
06 30.11.20 140 (ЮВ) 20000 м    10/10 420 м кучево-дожд. 
[Cb calv]
+1.8 +0.8 93 +3  1024.7  0.3  763  305  +0.4    0.0     
09 30.11.20 110 (В) н/о    н/о 
+1.7 +1.1 96 +2  1024.3  -0.4  762  305           
12 30.11.20 120 (ЮВ) н/о    н/о 
+1.1 +0.5 96 +2  1023.2  -1.1  761  305           
15 30.11.20 140 (ЮВ) н/о    н/о 
+0.1 -0.2 98 +1  1022.9  -0.4  761  307         
18 30.11.20 180 (Ю) 20000 м    8/0 средняя 
[Ac und]
-0.6 -1.9 91 -1  1023.4  0.5  761  308    +1.9     
21 30.11.20 150 (ЮВ) н/о    н/о 
-1.2 -2.5 91 -2  1023.7  0.3  762  309           
00 01.12.20 170 (Ю) н/о    н/о 
-0.2 -2.3 86 -2  1023.4  -0.3  761  307           
03 01.12.20 180 (Ю) н/о    н/о 
-0.1 -1.8 88 -1  1024  0.6  762  307  -1.3         
06 01.12.20 200 (Ю) 20000 м    9/9 930 м 
[Sc]
+0 -2.2 85 -1  1025.3  1.3  763  308  -1.3         
09 01.12.20 190 (Ю) н/о    н/о 
+0.2 -1.9 86 +1  1027.4  2.1  764  308           
12 01.12.20 200 (Ю) н/о    н/о 
+0.2 -1.9 86 -1  1028.8  1.4  766  308           
15 01.12.20 210 (ЮЗ) н/о    н/о 
+0 -2.5 83 -1  1030.5  1.7  767  309           
21 01.12.20 190 (Ю) н/о    н/о 
-0.3 -2.7 84 1032.8  768  310           
00 02.12.20 180 (Ю) н/о    н/о 
-0.8 -1.8 93 1033.7  0.9  769  311           
03 02.12.20 210 (ЮЗ) н/о    н/о 
-0.6 -2.3 88 1034.1  0.4  769  311  -0.8    0.1     
06 02.12.20 190 (Ю) 20000 м    10/10 480 м 
[Sc]
-0.7 -2.4 88 1034.6  0.5  770  311  -0.8    0.0  <0.5  равномерный
сухой снег
100% 
Время (UTC), дата Ветер
(°,м/с) 
Видим.   Явления Облачность Т
(°С)
Тd
(°С)
f(%) Тe
(°С)
Pmin
(гПа)
dP
(гПа)
Po
(мм)
O2
(г/м3)
Тmin Tmax R s Состояние
почвы

Для получения пояснительной информации подведите курсор к названию столбца.

ПОГОДА Крестцы - архив

Всё, что Вы хотите узнать о погоде Крестцы - удобно и подробно!

Выберите нужную дату (начиная с 1 января 2019* года) и нажмите кнопку "Найти".
Будут отображены архивные сводки погоды по пункту Крестцы, начиная с указанной даты.


Отображать данные в формате CSV (для использования в таблицах Excel)


Внимание! Наш архив погоды предназначен исключительно для личного некоммерческого использования в познавательных целях. Если Вам необходимы официальные справки о состоянии погоды (для производственных, юридических, коммерческих и т.п. целей), обращайтесь в органы Росгидромета.

*Примечание: данная дата относится к архиву по метеостанциям СССР (Россия, СНГ, Балтия).
Архив по метеостанциям Зарубежной Европы и Азии (кроме Китая) хранится 10 дней, по другим регионам земного шара (Китай, Африка, Америка, Австралия, Океания) - 1 день.

Крестцы - район местоположения метеостанции


Название, широта, долгота, высота метеостанции:
Крестцы 58.3°ш. 32.5°д. 63 м над ур. моря [Российская Федерация]

Дополнительная информация

В oтличие oт бoльшинства пoгoдных сайтoв мы публикуем пoдрoбную метеoинфoрмацию в детальнoм прoфессиoнальнoм фoрмате.

Характеристики температуры и влажнoсти вoздуха измеряются на высoте 2 м в тени вдали oт зданий и деревьев.
Скoрoсть ветра измеряется на высoте 10 м (на урoвне рoста челoвека скoрoсть ветра ниже в 1.5-2 раза). Если метеoстанция нахoдится в гoрoде или в лесу, тo скoрoсть ветра занижена на 2-4 м/с пo сравнению с oткрытым местoм. Скoрoсть ветра над акватoриями крупных рек и oзёр, а также на вершинах хoлмoв на 2-5 м/с выше, чем в oбычных услoвиях.
Атмoсфернoе давление в разных тoчках местнoсти мoжет значительнo oтличаться oт давления на метеoстанции, в зависимoсти oт услoвий рельефа (при пoдъёме на 10 м давление пoнижается примернo на 1 мм рт.ст.).